This is the latest recevied weather packets stored in our database for station/object KG4AGD. If no packets are shown the sender has not sent any weather packets the latest 10 day(s).
| Time | Temp. | Humidity | Pressure | Rain* | Wind** | Luminosity | Snow |
|---|---|---|---|---|---|---|---|
| 1777924656 | 27.22° C | 35% | 1015.5 hPa | 0 mm | - | - | - |
| 1777924354 | 26.67° C | 36% | 1015.5 hPa | 0 mm | - | - | - |
| 1777924052 | 26.67° C | 38% | 1015.5 hPa | 0 mm | - | - | - |
| 1777923750 | 27.22° C | 36% | 1015.9 hPa | 0 mm | - | - | - |
| 1777923447 | 26.67° C | 38% | 1015.9 hPa | 0 mm | - | - | - |
| 1777923145 | 26.67° C | 38% | 1015.9 hPa | 0 mm | - | - | - |
| 1777922843 | 26.67° C | 38% | 1015.9 hPa | 0 mm | - | - | - |
| 1777922541 | 27.22° C | 35% | 1015.9 hPa | 0 mm | - | - | - |
| 1777922239 | 26.67° C | 39% | 1015.9 hPa | 0 mm | - | - | - |
| 1777921937 | 26.11° C | 38% | 1015.9 hPa | 0 mm | - | - | - |
| 1777921634 | 26.11° C | 37% | 1015.9 hPa | 0 mm | - | - | - |
| 1777921332 | 26.11° C | 39% | 1016.2 hPa | 0 mm | - | - | - |
| 1777921029 | 26.11° C | 36% | 1016.2 hPa | 0 mm | - | - | - |
| 1777920727 | 26.67° C | 37% | 1016.2 hPa | 0 mm | - | - | - |
| 1777920425 | 26.67° C | 38% | 1016.2 hPa | 0 mm | - | - | - |
| 1777920123 | 26.11° C | 36% | 1016.2 hPa | 0 mm | - | - | - |
| 1777919820 | 26.11° C | 37% | 1016.2 hPa | 0 mm | - | - | - |
| 1777919518 | 26.67° C | 38% | 1016.2 hPa | 0 mm | - | - | - |
| 1777919216 | 26.11° C | 37% | 1016.2 hPa | 0 mm | - | - | - |
| 1777918914 | 26.11° C | 38% | 1016.2 hPa | 0 mm | - | - | - |
| 1777918611 | 25.56° C | 38% | 1016.5 hPa | 0 mm | - | - | - |
| 1777918309 | 26.11° C | 37% | 1016.5 hPa | 0 mm | - | - | - |
| 1777918007 | 26.11° C | 37% | 1016.5 hPa | 0 mm | - | - | - |
| 1777917705 | 26.67° C | 39% | 1016.5 hPa | 0 mm | - | - | - |
| 1777917402 | 26.11° C | 35% | 1016.9 hPa | 0 mm | - | - | - |
* Rain since midnight (hover to see other rain measurements)
** Current wind speed in m/s (hover to see current wind gust speed)